Wind_Speed
17 14 14 3 2 4 2 3 3 8 5 3 12 3 5 3 2 2 13 17 31 29 24 22 22 19 19 17 17 16 15 14 14 14 13 12 12 11 10 9 11 9 8 8 8 8 7 7 8
17 12 2 2 4 4 3 4 3 4 2 4 5 4 4 2 4 9 12 31 33 30 26 23 22 19 17 16 15 15 14 13 12 13 12 11 11 11 10 11 11 12 10 9 9 10 8 8 9
11 4 2 3 2 2 0 2 9 10 8 5 3 4 3 2 7 19 13 32 32 29 26 24 21 20 17 16 16 14 13 13 11 13 13 12 9 10 11 9 11 11 11 10 10 10 10 8 8
5 1 3 4 1 2 1 4 7 13 8 1 4 6 5 4 11 11 31 33 33 29 26 22 20 18 17 16 16 14 13 12 12 13 13 11 11 10 11 10 9 10 10 9 8 10 9 8 7
2 2 3 3 1 1 3 3 9 8 2 3 2 3 4 5 13 28 29 32 33 29 25 23 21 19 17 17 14 13 12 12 12 12 13 12 11 11 11 11 10 10 9 9 8 9 8 6 7
3 2 4 3 3 2 4 3 9 1 6 5 6 6 4 17 26 25 27 31 30 29 25 23 20 17 16 16 14 13 13 12 13 12 11 11 10 10 10 10 10 10 9 9 7 7 8 8 8
2 3 2 2 2 2 2 2 5 4 4 3 7 4 3 9 20 24 28 29 29 28 25 22 20 18 16 14 15 14 14 13 12 12 11 11 10 10 10 9 9 9 9 8 7 7 7 8 8
3 3 4 3 3 1 4 3 5 6 3 5 7 6 6 10 21 25 26 28 28 27 26 24 22 20 17 15 14 14 14 15 14 13 13 11 9 9 8 9 8 8 7 7 7 7 8 9 9
2 3 1 2 2 6 4 2 4 5 8 1 3 5 15 28 27 24 23 23 25 26 26 24 24 21 20 18 18 15 16 15 14 13 12 11 11 10 9 9 8 7 9 9 8 8 9 10 11
2 3 7 6 3 3 4 5 8 5 7 3 11 18 31 27 26 23 21 21 22 24 28 26 24 23 23 21 20 20 19 18 17 16 14 14 14 12 10 10 11 8 11 10 10 11 11 11 12
4 5 5 0 1 5 6 5 2 10 2 5 13 17 20 23 21 23 22 23 27 25 26 28 26 24 24 24 24 23 22 20 20 18 18 17 15 12 11 12 14 13 14 14 12 13 13 13 14
1 2 3 2 4 3 5 6 2 6 3 11 17 23 17 17 16 20 21 23 26 28 31 31 29 28 27 27 27 25 24 23 23 21 20 19 19 16 12 12 13 16 15 15 15 13 13 13 14
1 3 3 3 5 4 1 5 6 2 6 14 18 17 17 16 17 16 17 18 22 27 30 31 31 31 30 29 28 29 28 27 24 23 21 20 20 19 17 14 13 15 15 14 12 13 14 15 16
0 2 3 4 5 4 4 3 5 2 11 14 17 15 14 14 17 14 18 21 26 29 31 32 33 33 32 32 31 31 29 28 26 24 22 22 21 20 19 16 15 15 14 16 14 14 14 14 15
1 2 3 1 1 2 1 3 3 7 10 13 13 12 12 13 17 22 28 27 33 34 30 33 33 34 34 34 33 32 31 30 28 27 24 22 22 21 20 18 15 14 13 13 16 14 14 15 15
4 4 4 3 2 2 4 3 2 7 12 12 13 12 14 13 22 25 25 29 32 28 33 32 32 33 35 35 33 33 31 30 29 28 27 24 24 20 21 21 18 14 13 13 15 17 17 18 20
6 2 2 1 4 1 3 2 3 6 7 8 12 13 13 11 15 24 28 33 31 36 35 35 34 34 35 34 33 32 31 29 28 28 27 27 22 22 23 23 21 17 17 16 16 17 18 20 21
3 2 3 3 3 3 2 2 6 7 8 9 8 9 12 14 19 27 30 32 32 35 36 35 35 34 33 31 30 30 29 30 28 28 26 25 23 22 22 23 21 18 19 19 19 19 19 21 23
4 3 3 2 2 3 4 6 10 8 10 9 9 8 9 13 17 23 29 30 30 32 34 35 34 35 33 31 30 31 33 33 30 28 26 19 21 22 22 22 22 20 21 21 20 20 19 22 20
4 3 2 2 2 1 2 7 8 9 9 16 16 13 14 12 11 12 18 25 31 35 38 35 37 34 34 34 33 29 23 27 31 27 25 24 21 22 24 24 21 20 21 21 21 20 19 18 11
3 5 5 4 2 1 4 4 4 5 3 6 12 14 15 17 17 14 11 23 26 29 35 39 39 37 35 33 28 23 18 18 18 21 22 21 21 20 20 22 20 20 20 22 22 18 17 17 9
2 7 5 7 3 2 3 4 4 3 6 8 8 9 13 15 14 14 13 16 26 33 33 33 33 34 32 28 26 28 23 21 21 22 20 16 13 13 17 20 21 22 21 20 18 15 15 16 14
4 6 3 3 4 2 2 3 6 1 4 9 9 12 13 13 14 16 14 24 30 28 31 31 28 27 26 24 23 18 10 16 18 18 21 13 10 13 13 16 18 19 20 15 12 11 11 13 14
4 5 7 5 2 3 5 3 6 3 5 4 6 14 14 13 9 11 19 22 22 24 24 23 22 17 20 21 9 10 28 41 33 18 23 22 13 15 12 13 15 15 14 14 16 13 11 11 11
6 6 4 3 4 5 4 1 10 6 8 5 8 6 6 5 6 8 7 10 21 15 21 19 13 13 14 14 19 14 15 27 32 18 22 22 18 19 12 9 6 8 10 13 15 14 14 12 9
4 7 5 6 3 4 2 5 6 5 6 4 5 6 4 6 4 5 1 8 6 2 8 11 12 17 21 23 17 19 18 24 21 12 12 15 21 21 17 14 10 12 11 9 12 13 14 9 7
3 4 5 7 3 2 3 7 10 5 7 8 5 5 5 5 3 5 6 6 8 7 7 2 10 12 12 13 23 21 24 24 28 10 13 14 14 18 12 7 5 7 4 6 8 10 9 3 2
4 3 3 3 4 5 4 6 6 5 8 6 5 7 5 2 6 6 5 8 10 8 7 8 13 11 12 14 13 27 20 24 20 12 13 15 7 1 4 4 5 5 2 3 2 2 3 3 4
2 1 6 5 4 5 2 6 8 10 10 10 8 7 6 7 1 5 5 6 10 11 15 19 21 19 20 26 25 21 16 12 10 9 8 6 4 4 5 7 8 7 6 4 3 3 2 4 5
4 7 6 5 6 2 3 7 3 8 9 10 8 5 4 4 3 5 5 8 10 17 23 24 26 23 20 22 24 24 22 17 13 11 8 8 7 7 8 7 7 7 7 7 5 4 5 6 7
Wind_Direction
136 138 145 140 64 67 5 44 104 101 136 257 160 219 167 56 133 200 148 155 146 143 142 143 141 139 136 133 131 128 123 123 127 128 134 137 137 140 142 145 157 143 131 131 129 132 135 141 130
139 141 83 68 75 63 293 318 58 67 109 119 125 92 48 78 80 122 129 153 147 146 148 148 145 143 141 137 135 132 129 131 129 134 137 139 143 138 135 133 134 138 135 125 127 139 144 137 133
142 151 82 92 89 120 15 320 113 127 121 165 93 72 77 84 106 142 151 150 148 149 152 151 152 146 145 142 141 141 137 134 133 138 141 143 141 134 130 130 131 135 135 135 131 131 138 143 140
195 50 28 83 55 245 199 204 96 78 321 72 127 60 65 128 136 164 146 153 151 152 154 154 153 149 149 148 148 153 146 142 138 143 147 137 137 136 135 132 137 136 131 136 140 139 145 148 153
202 101 31 51 42 340 282 234 142 144 170 66 35 71 100 26 130 138 148 155 154 155 155 158 155 153 156 156 156 155 151 156 156 150 149 147 148 145 145 147 145 141 139 138 143 144 152 160 162
8 83 32 356 316 343 265 217 96 326 117 139 86 102 71 126 129 144 152 158 159 157 161 161 159 157 160 162 164 162 165 160 160 159 154 154 159 158 155 159 160 156 155 158 164 168 168 169 178
109 75 242 345 281 24 298 84 115 112 122 105 136 82 93 133 139 147 158 163 162 163 165 168 167 164 169 170 166 171 171 169 168 168 164 166 171 169 167 172 177 171 172 177 185 193 196 190 197
129 89 18 32 332 272 174 146 117 101 47 125 148 152 168 167 147 154 161 165 167 170 173 175 175 174 178 179 177 179 182 180 182 182 179 182 187 187 190 192 193 198 197 202 202 204 208 219 224
130 79 96 286 327 300 173 115 132 107 129 263 41 121 135 147 147 144 150 162 173 179 182 183 182 184 185 191 184 192 192 194 194 193 190 191 199 197 204 215 217 223 220 222 223 225 230 229 242
117 115 197 190 180 244 203 164 161 112 146 55 77 103 128 142 147 149 161 172 182 186 189 190 191 193 193 196 189 197 201 203 203 203 197 206 206 207 220 227 218 255 228 231 232 234 236 237 236
167 178 187 304 196 237 178 191 149 119 202 182 151 143 144 150 159 168 175 185 187 188 193 196 200 201 199 199 197 203 209 209 210 211 210 212 214 215 221 238 241 243 225 234 242 237 236 240 242
318 58 140 130 19 327 125 115 103 149 252 150 157 153 150 160 173 177 183 187 188 197 200 203 204 204 206 208 208 212 216 215 216 216 215 221 220 224 242 254 261 238 257 262 252 250 248 250 250
256 81 145 72 14 344 196 138 164 213 86 128 141 152 163 172 183 188 186 190 193 203 206 210 208 209 212 214 217 219 220 221 223 224 224 226 228 236 252 258 264 256 255 261 244 252 263 259 264
177 62 66 38 335 330 98 126 96 60 117 128 150 162 170 176 185 180 191 195 203 211 212 213 215 215 217 219 222 224 226 228 230 231 231 232 237 243 250 260 260 257 265 249 252 258 254 261 269
126 58 33 1 26 312 147 35 69 145 137 144 159 174 178 183 179 200 201 203 209 215 216 217 219 220 222 225 227 230 232 234 235 238 241 241 243 246 248 256 259 261 257 250 247 252 255 260 268
51 57 49 279 213 33 86 248 100 149 146 167 170 186 194 190 194 206 209 212 216 215 220 222 221 223 226 227 230 234 237 239 241 244 246 246 250 253 250 251 255 259 255 259 251 254 262 265 266
16 295 237 304 212 30 89 199 176 163 153 176 186 188 199 205 216 213 217 218 216 222 225 225 223 225 227 229 233 238 243 246 248 249 252 252 253 255 253 253 262 260 262 261 264 270 266 269 267
198 282 271 246 196 128 29 194 172 175 176 194 201 202 204 203 217 220 219 221 220 225 230 230 227 228 231 233 234 240 246 251 253 259 254 258 255 257 255 255 261 257 258 260 259 261 261 267 267
130 172 262 283 226 123 198 192 193 187 198 198 210 213 221 224 220 211 221 225 223 225 228 230 228 231 228 229 231 237 241 247 249 253 257 256 260 254 250 252 256 255 256 260 260 260 262 272 267
125 132 272 0 99 131 199 242 220 194 200 196 203 216 225 236 243 234 211 214 218 226 232 230 232 230 230 231 231 231 236 247 251 254 256 260 262 259 257 260 262 261 263 266 261 248 256 267 256
140 177 177 189 189 113 297 274 205 247 264 208 216 210 217 225 231 239 229 220 220 222 232 231 234 232 231 232 229 231 239 251 250 249 253 262 260 263 260 260 262 260 263 263 266 263 253 265 268
175 199 160 146 104 272 33 290 233 187 231 233 219 213 209 211 218 229 226 222 216 229 234 235 234 233 231 231 234 239 236 238 256 264 270 268 259 264 255 254 255 259 259 258 263 272 264 261 264
212 156 154 93 80 32 26 55 271 179 205 237 228 227 225 220 207 212 217 224 226 229 231 233 235 232 227 225 239 253 289 336 314 293 278 267 260 263 262 264 258 256 254 247 239 238 243 260 251
114 65 45 53 51 11 324 129 281 238 192 225 236 233 230 224 222 216 214 224 231 231 226 226 227 221 218 218 208 65 52 5 334 336 345 335 304 307 287 268 263 257 260 244 240 231 224 246 244
73 65 357 357 13 224 309 32 245 249 242 214 249 269 280 278 263 233 190 205 227 219 221 218 209 184 189 233 206 169 64 29 306 268 314 314 313 303 297 277 276 263 267 255 235 226 230 243 216
140 150 167 205 205 259 284 243 256 220 267 244 273 305 280 254 252 343 33 70 85 162 232 237 219 210 219 216 168 146 112 276 255 255 248 255 274 308 287 282 262 271 265 249 236 231 232 230 219
175 174 178 106 18 29 241 291 296 214 269 284 295 275 260 273 39 65 79 108 112 83 55 26 199 206 214 194 170 186 228 236 210 212 235 250 286 299 300 298 282 269 240 234 239 235 240 213 233
146 156 81 5 136 233 284 283 242 271 236 243 282 253 257 305 99 99 77 91 104 94 70 95 122 131 118 132 158 207 213 197 197 228 261 250 254 328 10 33 51 57 35 322 293 251 246 254 277
107 199 49 118 126 167 226 261 222 238 199 186 231 224 237 258 169 164 138 113 92 92 91 95 99 100 107 120 128 134 142 170 196 182 154 135 106 75 62 62 59 48 35 26 13 8 348 328 292
147 187 150 136 222 214 176 272 292 235 177 171 196 188 211 209 168 166 161 137 114 103 98 100 105 110 111 107 102 98 99 104 104 98 100 90 83 81 76 64 54 53 46 49 50 49 20 26 48
Height
753 755 756 759 778 781 792 775 759 769 773 760 761 768 770 772 779 800 783 786 789 794 799 803 805 808 810 811 814 816 818 819 821 822 822 823 824 825 826 826 826 826 827 828 829 831 832 833 833
753 756 758 762 789 801 796 768 771 765 761 761 762 765 772 783 776 781 786 789 791 795 800 804 806 809 812 814 816 818 819 821 822 823 824 825 825 826 827 828 827 827 828 829 830 832 834 835 835
754 756 763 776 792 804 792 769 762 757 761 762 766 763 772 783 780 783 786 790 793 797 801 805 808 811 814 816 818 820 821 822 822 823 824 826 826 827 829 829 829 829 829 831 832 833 834 836 837
754 757 763 784 788 777 774 764 760 769 769 766 765 777 775 777 782 784 788 791 794 798 803 807 810 813 815 817 819 820 821 823 824 825 825 826 827 829 831 831 832 831 831 833 833 834 836 837 838
753 759 780 783 781 772 763 755 762 765 766 763 762 784 786 784 782 787 790 793 796 800 804 808 811 814 816 818 820 822 823 824 825 826 826 827 829 829 830 832 833 833 833 834 835 836 837 838 839
760 762 790 797 782 769 760 751 759 762 763 766 772 778 788 787 785 790 793 797 800 802 806 809 813 815 817 819 821 823 824 825 826 827 829 830 831 830 831 832 833 833 834 835 835 836 836 838 839
762 774 785 782 781 772 762 751 759 763 766 769 764 785 790 789 790 792 795 799 802 804 807 811 813 816 818 820 822 823 824 826 827 828 829 830 831 832 832 833 834 833 834 835 837 838 838 839 840
755 769 784 785 791 776 757 754 754 762 769 760 761 785 794 788 791 793 798 801 804 805 807 810 814 816 818 820 822 824 825 826 827 829 829 830 832 833 834 834 835 835 835 835 837 838 839 839 840
746 782 793 786 785 780 755 761 755 754 762 762 763 768 772 784 789 795 800 803 805 806 807 810 812 815 817 818 821 823 825 826 828 829 829 830 831 832 834 834 835 835 836 836 836 838 838 839 839
760 781 779 765 765 772 757 758 757 764 768 771 774 773 777 786 790 794 798 800 803 804 806 809 812 813 815 817 819 821 823 825 827 828 829 829 830 831 833 834 834 833 834 835 835 836 837 837 838
757 773 761 758 756 757 755 757 754 767 777 770 776 777 780 786 791 792 794 796 797 802 805 807 810 813 815 816 818 819 821 824 825 827 827 827 829 831 831 832 833 832 831 832 833 834 835 835 837
763 756 755 755 754 759 757 754 762 760 760 758 767 771 778 785 788 790 792 794 797 800 801 804 807 810 813 815 816 818 820 822 823 825 826 826 828 829 831 831 831 831 831 831 831 831 832 832 834
762 759 756 753 754 754 752 758 761 761 757 759 767 775 779 782 785 790 793 795 797 797 799 802 805 807 809 812 814 816 817 819 821 823 825 826 827 828 829 830 830 830 830 829 830 830 830 829 829
756 757 761 757 759 756 760 762 758 764 762 767 770 776 779 782 785 790 791 791 792 793 795 798 801 804 807 808 810 813 816 818 820 821 822 824 825 826 827 828 828 827 827 827 828 828 828 827 827
756 765 763 763 758 761 757 770 771 762 763 772 775 776 779 780 784 784 782 784 785 788 793 794 797 801 803 805 808 811 813 815 818 819 820 822 822 824 825 825 825 824 825 825 825 826 825 825 824
769 772 791 767 760 758 763 789 770 764 767 773 776 777 777 778 776 778 781 782 784 787 788 791 794 797 800 802 806 808 811 813 815 816 818 818 819 820 821 821 821 822 822 822 822 823 823 822 822
784 797 790 776 759 763 769 786 769 765 769 776 773 774 776 777 776 774 775 777 780 781 785 787 790 792 796 801 805 807 809 811 812 813 814 814 815 817 817 818 819 819 819 819 820 820 820 820 819
792 793 785 783 767 766 775 778 771 766 768 771 773 774 773 773 769 769 770 772 775 777 780 784 788 791 795 800 804 806 807 807 809 809 810 810 812 814 814 814 814 815 815 815 816 815 816 816 814
773 780 781 770 762 769 776 779 772 767 767 770 771 771 769 766 760 764 767 770 771 774 777 779 784 787 792 795 799 800 799 800 802 803 804 807 808 810 811 811 811 811 810 811 812 812 812 811 811
773 780 783 772 765 772 778 779 770 766 762 760 762 763 761 759 758 758 760 764 766 768 770 775 777 782 785 789 791 793 794 795 797 799 801 802 804 806 808 808 808 808 808 808 807 808 808 806 808
775 781 779 776 770 769 778 783 774 764 761 759 756 754 755 754 753 753 755 755 759 763 766 767 770 776 780 785 790 794 796 795 795 794 796 797 799 801 802 803 803 804 804 804 804 804 805 804 804
781 761 762 772 780 802 779 813 779 770 769 762 756 755 749 747 747 749 750 751 752 754 760 765 768 773 778 784 789 790 792 794 796 797 798 795 794 794 795 796 797 798 799 798 798 799 798 798 799
767 756 763 770 788 790 793 807 782 770 771 765 755 749 744 739 738 740 742 743 746 752 754 759 764 771 776 782 786 795 803 805 801 801 797 793 791 791 792 794 794 793 792 791 792 794 795 796 795
751 767 777 791 797 819 805 804 791 772 759 758 749 740 737 733 734 734 734 739 744 748 753 756 760 767 772 778 789 801 803 800 800 797 796 791 789 790 790 788 789 789 790 790 789 790 792 792 792
764 786 825 820 830 828 810 808 782 756 749 746 744 741 739 737 738 735 736 737 739 745 748 753 759 765 769 775 781 788 797 793 791 792 788 786 786 789 789 787 786 787 787 786 787 787 788 789 789
770 782 817 827 835 823 804 811 773 746 737 737 734 736 735 734 736 740 738 741 744 748 750 754 757 759 761 767 781 794 793 785 790 783 780 781 784 786 787 786 784 784 785 784 786 786 787 789 789
767 786 774 815 824 821 810 789 754 743 744 738 736 735 736 737 741 741 739 742 745 749 751 754 758 757 760 771 778 782 780 778 781 781 777 780 783 785 783 782 781 782 782 784 786 787 787 788 789
754 760 791 810 825 825 815 806 790 755 749 742 740 740 738 737 742 744 744 745 746 748 752 754 755 757 763 770 773 775 775 776 779 781 783 784 787 784 784 783 781 781 783 783 786 788 788 789 789
769 777 791 796 810 822 824 803 753 743 742 743 740 738 739 738 740 742 745 748 748 750 753 753 756 759 767 774 776 776 777 779 781 785 786 785 785 786 786 785 784 783 785 786 787 788 788 788 787
749 764 775 797 802 813 808 790 728 732 734 735 738 738 737 739 740 742 743 746 749 752 753 756 758 764 767 771 773 774 776 780 783 784 788 787 787 787 786 786 786 786 788 788 788 789 789 789 787